OPS 4682 DEB, 38393

Orbit data source: Space-Track

OPS 4682 DEB, 38393 is space debris in LEO originally from a launch on Sat, 03 Apr 1965 UTC launched from the Air Force Western Test Range (AFWTR). Debris objects in space refer to the collection of defunct objects orbiting the Earth. Examples of debris include non-operational satellites, rocket bodies, and fragments generated from explosions, collisions, or faulty payload assembly.

Loading next visibility...
Identifier
38393, 1965-027CW
Orbit
LEO
Country
Flag of USUS
Related business
Manufacturer
Unknown
Mission
Spacecraft
Bus & Motor
Unknown
Mass
Unknown
Launch date (UTC)
1965-04-03 (61 years ago)
Launch vehicle
Unknown
Launch site
Air Force Western Test Range (AFWTR)
Object type
Payload
Rocket body
Debris
Shape & HBR
Unknown shape, 0.1 m
Radar Cross Section
Medium (>0.1 m² and <1 m²)

Expand to show TLE details & history
Last TLE update: 3 days ago

TLE from 3 days ago
0 OPS 4682 DEB
1 38393U 65027CW  26172.51365528 -.00000397  00000-0 -13726-2 0  9991
2 38393  90.2550  16.9024 0026257   8.8709 351.2871 12.98450742626389
Epoch: 2026-06-21T12:19Z
TLE epoch observation values (Epoch: 2026-06-21T12:19:39.816Z)
Latitude
-0°
Longitude
-77.72634°
Altitude
1,251.196 km
Speed
7.239 km/s
True Right ascension
01h 07m 36s
True Declination
0° 00' 00"
Sunlit
Object was in daylight at epoch
Visualization orbit readout
Latitude
Unknown
Longitude
Unknown
Altitude
Unknown
Speed
Unknown
Apparent Right ascension
Unknown
Apparent Declination
Unknown
Sunlit
N/A
Visualization observer readout
Local Sidereal Time
21:09:42
Azimuth
Unknown
Elevation
Unknown
Doppler factor
Unknown
Orbital elements
Apogee altitude
1,285.361 km
Perigee altitude
1,245.223 km
Semi-major axis
7,643.429 km
Eccentricity
0.00263
Inclination
90.255°
RAAN
16.9024°
Arg. of periapsis
8.8709°
True anomaly
351.24137°
Mean anomaly
351.2871°
Eccentric anomaly
351.26425°
Mean motion
3.24796 °/min
Orbital period
110.84 mins
BSTAR
-0.0013726
Loading maneuver chart data...
Computing Atmospheric mass density...
Loading historical data...
Loading historical data...
Loading historical data...
Loading historical data...
Loading historical data...
Loading historical data...
Loading historical data...

Documentation

Showing up to 5 results
|